ATLAS 5 CENTAUR DEB, 45473

Orbit data source: Space-Track

ATLAS 5 CENTAUR DEB, 45473 is space debris in HEO originally from a launch on Wed, 17 Oct 2018 UTC launched from the Air Force Eastern Test Range (AFETR). Debris objects in space refer to the collection of defunct objects orbiting the Earth. Examples of debris include non-operational satellites, rocket bodies, and fragments generated from explosions, collisions, or faulty payload assembly.

Loading next visibility...
Identifier
45473, 2018-079BV
Orbit
HEO
Country
Flag of USUS
Related business
Flag of USUnited Launch Alliance/Lockheed Martin (US)
Manufacturer
ULA Decatur
Mission
Spacecraft
Bus & Motor
Unknown
Mass
Unknown
Launch date (UTC)
2018-10-17 (8 years ago)
Launch vehicle
Unknown
Launch site
Air Force Eastern Test Range (AFETR)
Object type
Payload
Rocket body
Debris
Shape & HBR
Unknown shape, 1.1 m
Radar Cross Section
Medium (>0.1 m² and <1 m²)

Expand to show TLE details & history
Last TLE update: 5 days ago

TLE from 5 days ago
0 ATLAS 5 CENTAUR DEB
1 45473U 18079BV  26168.80551082 -.00000122  00000-0  00000-0 0  9996
2 45473  12.9405  68.3567 4529893 242.5209  64.5504  1.70627039 41728
Epoch: 2026-06-17T19:19Z
TLE epoch observation values (Epoch: 2026-06-17T19:19:56.134Z)
Latitude
0.00004°
Longitude
-127.72147°
Altitude
23,377.193 km
Speed
3.649 km/s
True Right ascension
04h 33m 16s
True Declination
0° 00' 00"
Sunlit
Object was in daylight at epoch
Visualization orbit readout
Latitude
Unknown
Longitude
Unknown
Altitude
Unknown
Speed
Unknown
Apparent Right ascension
Unknown
Apparent Declination
Unknown
Sunlit
N/A
Visualization observer readout
Local Sidereal Time
21:41:33
Azimuth
Unknown
Elevation
Unknown
Doppler factor
Unknown
Orbital elements
Apogee altitude
36,607.94 km
Perigee altitude
9,804.944 km
Semi-major axis
29,584.579 km
Eccentricity
0.45299
Inclination
12.9405°
RAAN
68.3567°
Arg. of periapsis
242.5209°
True anomaly
117.38387°
Mean anomaly
64.5504°
Eccentric anomaly
90.50377°
Mean motion
0.42653 °/min
Orbital period
844.03 mins
BSTAR
0
Loading maneuver chart data...
Computing Atmospheric mass density...

Documentation

Showing up to 5 results
|